Wind_Speed
12 12 12 12 11 12 13 14 15 15 16 16 17 18 19 18 18 18 18 17 18 19 19 18 19 19 19 18 17 17 16 15 15 14 14 13 12 11 11 10 10 9 8
10 10 11 11 11 12 13 14 15 16 16 16 17 18 19 19 19 19 19 18 18 19 20 19 20 20 21 21 20 19 19 18 17 17 16 15 14 13 13 12 12 11 10
10 11 12 12 12 13 14 15 16 17 17 18 18 18 20 20 20 20 20 19 20 20 20 21 22 22 23 23 22 22 21 20 20 20 19 18 17 16 15 15 14 13 12
11 12 13 14 14 15 15 16 17 18 19 19 19 19 20 21 22 22 22 21 22 21 21 21 22 24 25 25 25 25 25 24 23 23 22 21 20 19 18 17 16 15 15
12 13 14 14 16 16 17 17 18 18 19 20 20 21 21 22 23 23 23 23 23 23 24 24 24 24 26 26 27 27 27 27 26 25 25 24 23 22 21 20 19 18 17
14 15 15 16 17 17 18 18 18 18 19 19 20 21 22 23 23 24 24 25 25 25 26 26 26 25 26 27 28 29 29 29 29 28 27 27 26 25 23 22 21 21 20
14 15 16 17 17 18 18 18 18 19 19 19 20 21 22 23 24 24 25 25 26 27 27 28 28 28 28 28 29 29 30 31 32 31 31 30 29 28 27 25 24 23 23
14 15 15 16 17 17 18 18 19 19 20 20 20 21 22 23 24 24 25 26 27 27 28 29 29 30 30 30 31 31 31 32 33 34 34 33 32 31 30 29 27 26 26
14 15 16 17 17 18 18 18 18 19 20 21 21 21 21 22 24 24 25 26 27 28 28 30 30 31 32 32 33 33 32 32 33 35 36 35 34 33 32 32 30 29 28
15 16 16 17 18 18 18 18 18 19 19 20 21 21 22 22 24 25 25 26 27 28 29 30 31 31 32 33 33 34 35 34 35 36 36 36 36 35 34 34 33 32 31
15 16 17 17 18 18 19 19 20 20 20 21 22 22 23 24 24 25 26 27 27 28 29 30 31 32 33 34 35 35 36 36 37 37 38 38 38 38 37 36 35 34 33
16 17 17 18 19 20 20 21 21 22 22 22 23 23 24 25 25 26 27 28 29 29 30 30 31 33 34 35 35 36 37 37 38 38 39 38 39 39 39 38 37 36 36
17 18 19 20 21 22 22 23 23 23 24 24 25 25 26 27 28 28 28 29 30 31 31 32 33 34 34 35 36 37 38 39 40 40 39 39 39 40 40 40 39 38 38
18 20 20 21 22 23 23 24 24 25 26 26 27 28 28 29 30 30 30 31 31 33 33 34 34 35 35 35 37 38 39 39 40 41 41 41 41 41 41 41 40 39 39
20 22 23 23 24 25 25 26 26 27 28 29 29 29 30 31 31 32 32 32 33 33 34 36 36 36 36 36 37 38 39 40 41 42 42 43 43 43 42 42 42 41 41
22 24 24 26 27 27 28 29 30 30 30 31 31 31 32 33 33 34 34 34 34 34 35 37 38 38 38 38 38 38 39 41 42 43 43 44 44 44 43 43 43 42 42
24 25 26 28 29 29 30 31 32 33 33 33 33 33 33 34 34 35 35 36 36 36 36 37 39 39 39 39 39 39 40 41 42 43 44 45 46 45 44 44 44 43 43
26 27 29 30 31 32 33 34 34 35 35 35 35 34 34 35 35 35 35 35 36 36 36 36 38 39 40 40 40 40 40 41 42 43 44 45 46 46 45 45 45 44 44
28 30 31 32 33 34 35 36 36 36 36 35 35 35 35 35 35 35 35 35 36 36 36 37 37 39 40 41 41 41 41 42 43 43 44 45 45 46 46 46 45 44 44
31 32 33 34 35 36 37 38 38 38 37 37 36 36 36 35 35 35 35 35 35 35 36 37 37 39 39 41 42 42 43 43 43 43 44 45 46 46 47 47 46 45 44
33 34 35 36 37 38 39 39 39 39 38 38 37 37 36 35 35 35 35 35 35 35 35 36 37 38 39 40 41 42 43 44 44 44 44 45 46 46 47 47 47 47 46
35 36 37 38 38 40 40 40 40 39 39 38 38 37 36 36 35 35 35 34 35 35 35 36 36 37 38 39 40 41 42 43 44 45 46 45 46 46 46 47 47 47 47
37 38 38 39 40 41 42 41 41 40 39 38 38 37 37 36 35 34 34 34 34 35 35 36 36 37 38 39 40 40 41 42 43 45 46 46 46 46 46 46 46 47 47
38 39 39 40 41 42 42 42 41 40 39 39 38 37 37 36 36 34 33 33 33 34 35 35 35 36 38 39 40 41 41 41 42 44 45 45 46 47 47 47 46 46 47
40 41 41 41 42 42 43 42 42 40 39 39 38 38 37 36 35 34 32 32 33 34 35 35 35 36 37 39 40 41 42 42 42 44 45 45 45 46 47 46 46 46 46
42 42 42 42 43 43 43 42 42 41 39 39 38 38 37 36 34 34 33 33 33 34 35 35 36 36 38 39 40 41 42 42 43 44 45 45 46 47 47 47 46 46 46
Wind_Direction
298 294 293 292 289 290 286 282 280 279 278 278 274 271 269 268 264 259 256 257 252 245 241 240 230 227 227 227 227 226 224 222 221 220 219 218 216 214 213 212 210 210 212
299 299 299 297 293 291 289 284 280 277 274 276 275 272 269 266 263 260 255 256 254 250 245 241 236 233 232 231 229 228 228 226 225 224 223 222 222 221 220 218 216 215 216
304 303 302 301 297 294 291 285 279 276 276 276 274 272 267 266 264 262 258 257 255 252 247 242 238 237 235 234 232 231 230 230 228 227 226 225 225 224 223 222 222 221 220
301 301 301 299 298 295 292 288 284 279 277 276 274 273 269 266 264 262 260 257 253 252 250 245 242 241 238 236 235 234 233 232 232 230 228 227 227 227 226 225 225 225 225
298 298 299 297 296 296 294 291 287 283 279 276 274 272 270 267 265 263 260 257 254 252 249 246 246 244 241 238 237 236 235 234 233 232 230 230 229 229 229 228 228 227 227
299 299 299 299 299 297 293 290 286 283 279 276 273 272 271 268 266 262 259 257 255 251 249 247 247 247 244 242 240 239 237 235 233 233 232 232 230 230 230 231 230 229 229
302 302 303 303 301 299 297 293 289 286 282 279 275 271 269 268 266 263 260 258 257 253 249 248 247 247 246 244 243 242 239 236 234 233 233 232 232 231 231 233 232 231 230
308 308 308 306 305 303 300 295 291 288 286 283 278 275 272 269 266 264 261 260 258 255 251 249 247 246 247 245 244 243 241 237 235 233 232 232 233 233 233 233 234 233 231
314 313 312 311 309 307 303 299 295 292 288 285 281 277 274 271 268 265 262 260 258 256 253 250 248 247 247 246 245 242 240 238 237 234 233 232 232 233 234 234 234 233 232
321 318 316 313 311 309 306 303 300 296 292 289 284 279 276 273 271 269 266 262 259 256 253 251 249 247 246 246 245 243 241 240 238 235 234 233 232 233 234 233 233 233 232
325 322 320 318 316 314 311 307 304 300 297 292 288 284 279 276 272 270 268 265 261 257 254 251 249 247 246 246 245 243 241 239 238 236 234 234 233 233 234 234 233 232 232
328 326 325 323 320 317 314 310 306 303 300 296 292 287 283 279 275 271 268 266 263 260 257 254 250 247 247 246 243 242 241 239 237 236 234 234 234 234 234 234 232 232 232
330 327 325 323 320 317 315 312 308 305 302 299 295 291 287 282 278 274 270 267 264 262 258 255 252 249 248 247 244 242 241 239 238 236 234 234 234 234 233 232 232 232 231
332 329 326 324 322 319 316 313 311 308 305 301 297 294 290 285 281 277 272 268 265 263 261 257 254 252 249 247 245 244 241 240 238 236 234 234 234 234 233 232 232 231 230
330 329 327 325 323 321 318 314 312 310 307 304 300 295 292 288 284 280 275 271 266 263 261 259 256 253 250 247 246 244 242 240 238 237 236 234 234 234 233 232 232 231 230
330 329 328 326 324 321 319 315 313 311 308 305 302 298 293 289 285 281 277 274 270 265 261 258 256 254 251 249 246 244 242 240 239 237 236 235 234 233 233 232 231 232 231
328 328 327 325 324 321 319 317 314 312 309 306 302 298 294 290 286 282 279 275 271 267 263 259 257 254 252 249 247 245 242 241 239 238 237 234 233 233 233 232 232 232 231
325 324 324 323 322 321 319 317 315 313 311 307 304 300 295 291 288 284 280 276 272 268 264 260 257 255 252 250 247 245 243 241 239 238 237 235 234 233 232 232 232 232 231
322 322 322 322 321 320 319 317 315 313 310 308 305 301 297 293 289 285 282 278 274 269 265 261 258 256 254 250 247 246 244 242 240 239 237 236 235 233 232 232 231 231 231
320 321 321 320 320 319 319 317 315 313 310 308 305 302 298 295 291 287 283 279 275 271 267 263 259 256 254 251 247 245 244 242 240 239 237 235 234 234 233 232 231 230 230
319 319 319 319 319 319 319 317 316 313 311 308 305 302 300 297 293 289 285 280 276 273 269 265 260 256 253 251 249 245 243 241 240 239 237 236 235 234 233 232 231 230 230
316 317 317 319 319 318 318 317 316 313 310 307 305 302 300 297 294 290 286 282 277 274 270 266 262 257 253 251 249 246 243 241 240 239 236 235 234 233 232 232 231 230 230
315 315 315 317 318 318 318 318 316 314 311 308 305 303 300 298 296 292 288 283 279 275 271 267 262 258 254 251 249 247 244 241 238 237 236 234 233 232 231 230 230 229 229
315 315 315 316 317 317 317 317 316 314 311 308 306 303 301 299 296 293 289 284 280 277 272 267 262 259 256 252 249 246 243 241 238 237 235 233 232 231 231 229 229 229 228
314 315 315 316 317 317 316 316 315 314 312 309 306 303 301 299 296 293 290 287 283 279 275 270 265 261 257 253 250 247 244 241 238 236 234 232 232 231 230 229 228 228 227
313 314 315 315 316 316 315 315 314 314 312 309 306 303 301 299 296 294 291 288 285 280 277 273 268 263 258 254 251 248 244 241 237 235 233 231 230 230 229 228 228 227 227
Height
5883 5882 5881 5880 5879 5879 5878 5878 5877 5877 5877 5877 5876 5877 5877 5877 5878 5878 5879 5880 5881 5882 5884 5885 5887 5889 5891 5893 5895 5897 5899 5901 5903 5905 5907 5909 5910 5912 5914 5915 5916 5918 5919
5880 5879 5879 5877 5877 5876 5876 5875 5874 5874 5874 5873 5873 5873 5873 5873 5873 5874 5875 5876 5877 5878 5879 5881 5883 5885 5887 5889 5891 5893 5896 5898 5900 5902 5904 5906 5908 5910 5912 5913 5915 5916 5918
5878 5877 5875 5875 5874 5873 5872 5871 5871 5870 5869 5869 5868 5868 5869 5869 5869 5870 5870 5871 5873 5874 5875 5876 5878 5880 5883 5885 5887 5889 5892 5894 5896 5899 5901 5903 5905 5907 5909 5911 5913 5914 5916
5875 5874 5872 5871 5870 5869 5868 5868 5867 5866 5865 5864 5864 5864 5864 5864 5864 5865 5865 5866 5868 5869 5870 5872 5873 5875 5877 5880 5882 5884 5887 5889 5892 5894 5897 5899 5902 5904 5906 5908 5910 5912 5914
5871 5870 5869 5868 5867 5865 5864 5863 5862 5861 5861 5860 5860 5859 5859 5859 5859 5859 5860 5861 5862 5864 5865 5866 5868 5870 5872 5874 5876 5879 5881 5884 5887 5889 5892 5895 5897 5900 5903 5905 5907 5909 5911
5868 5867 5865 5864 5863 5861 5860 5859 5858 5857 5856 5855 5855 5854 5854 5853 5853 5854 5854 5855 5856 5858 5859 5860 5862 5864 5866 5868 5870 5872 5875 5878 5881 5884 5887 5890 5893 5895 5898 5901 5903 5906 5908
5864 5863 5861 5860 5858 5857 5855 5854 5853 5852 5851 5850 5850 5849 5848 5848 5847 5847 5848 5849 5850 5851 5852 5854 5856 5858 5860 5862 5864 5866 5868 5871 5874 5877 5881 5884 5887 5890 5893 5896 5899 5901 5904
5861 5859 5857 5855 5854 5852 5850 5849 5847 5846 5845 5845 5844 5843 5843 5843 5842 5841 5841 5842 5843 5844 5845 5847 5849 5850 5852 5855 5857 5859 5861 5864 5867 5870 5874 5877 5881 5884 5887 5890 5893 5896 5899
5857 5855 5853 5851 5849 5848 5846 5844 5843 5841 5840 5839 5838 5838 5837 5836 5835 5835 5835 5835 5836 5837 5838 5839 5841 5843 5845 5847 5849 5852 5854 5856 5859 5862 5866 5869 5873 5877 5880 5884 5887 5891 5894
5853 5851 5849 5847 5845 5843 5841 5839 5838 5836 5834 5833 5832 5831 5831 5830 5829 5829 5828 5829 5829 5829 5831 5832 5833 5835 5837 5839 5841 5843 5846 5849 5851 5855 5858 5862 5866 5870 5873 5877 5881 5884 5888
5850 5848 5845 5843 5841 5839 5836 5834 5832 5830 5829 5827 5826 5825 5824 5823 5823 5822 5822 5821 5822 5822 5823 5824 5825 5827 5828 5830 5832 5835 5837 5840 5843 5847 5850 5854 5858 5862 5866 5869 5873 5877 5881
5847 5844 5842 5839 5837 5834 5832 5829 5827 5825 5823 5821 5819 5818 5817 5816 5815 5815 5814 5814 5814 5814 5815 5816 5817 5818 5819 5821 5823 5826 5828 5831 5835 5838 5842 5846 5849 5853 5857 5861 5866 5870 5874
5843 5841 5838 5835 5832 5829 5827 5824 5822 5819 5817 5815 5813 5811 5809 5808 5807 5806 5806 5806 5805 5805 5806 5807 5808 5809 5810 5812 5814 5816 5819 5822 5825 5829 5833 5837 5841 5845 5849 5853 5857 5862 5866
5839 5837 5834 5831 5827 5824 5821 5818 5816 5813 5810 5808 5805 5803 5801 5799 5798 5797 5797 5797 5797 5796 5796 5797 5798 5800 5801 5802 5804 5807 5809 5812 5816 5820 5824 5828 5832 5836 5840 5844 5849 5853 5857
5835 5832 5829 5826 5822 5819 5816 5812 5809 5806 5803 5800 5797 5795 5792 5790 5788 5787 5786 5786 5787 5787 5787 5787 5788 5789 5791 5793 5795 5797 5799 5802 5806 5810 5814 5818 5822 5827 5831 5835 5840 5844 5849
5831 5828 5824 5820 5817 5813 5810 5806 5802 5799 5795 5792 5789 5786 5783 5781 5779 5777 5776 5775 5775 5776 5776 5776 5777 5778 5780 5782 5784 5786 5789 5792 5796 5799 5803 5808 5812 5817 5821 5826 5830 5835 5840
5826 5823 5819 5815 5811 5807 5803 5799 5795 5791 5787 5783 5780 5776 5773 5770 5768 5766 5765 5764 5764 5764 5765 5765 5765 5767 5769 5771 5773 5776 5779 5782 5785 5788 5792 5797 5801 5806 5811 5816 5820 5825 5830
5821 5818 5814 5810 5805 5801 5796 5792 5787 5783 5778 5774 5770 5766 5763 5760 5758 5755 5754 5753 5752 5752 5753 5754 5754 5755 5757 5759 5762 5765 5768 5771 5774 5778 5781 5786 5790 5795 5801 5805 5810 5815 5820
5816 5812 5808 5803 5799 5794 5789 5784 5779 5774 5769 5764 5760 5756 5753 5750 5747 5745 5743 5742 5741 5740 5741 5742 5743 5743 5745 5747 5750 5753 5756 5759 5763 5766 5770 5774 5779 5784 5789 5795 5800 5805 5810
5810 5806 5801 5796 5792 5787 5781 5776 5770 5765 5760 5755 5750 5746 5743 5739 5736 5734 5732 5730 5729 5729 5729 5730 5730 5731 5733 5734 5737 5741 5744 5747 5751 5755 5759 5763 5768 5773 5778 5784 5789 5795 5800
5804 5799 5794 5789 5784 5779 5773 5767 5762 5756 5750 5745 5740 5736 5732 5729 5725 5723 5721 5719 5717 5717 5716 5717 5718 5719 5720 5722 5725 5728 5731 5735 5739 5743 5748 5752 5757 5762 5767 5772 5778 5783 5789
5796 5792 5787 5781 5776 5770 5764 5758 5752 5746 5741 5735 5731 5726 5722 5718 5715 5712 5709 5707 5706 5705 5705 5705 5706 5707 5708 5710 5712 5715 5719 5723 5728 5731 5736 5740 5745 5751 5756 5761 5767 5772 5778
5789 5784 5778 5773 5767 5761 5755 5749 5743 5737 5731 5726 5721 5716 5712 5708 5704 5701 5698 5696 5695 5693 5693 5693 5694 5695 5696 5698 5700 5703 5706 5710 5715 5719 5723 5729 5734 5739 5744 5750 5756 5761 5767
5780 5775 5770 5764 5758 5752 5746 5739 5733 5727 5721 5715 5711 5706 5702 5698 5693 5690 5688 5686 5684 5682 5681 5681 5682 5683 5684 5685 5688 5691 5694 5698 5703 5706 5711 5717 5722 5728 5733 5739 5745 5751 5756
5771 5766 5761 5755 5749 5742 5736 5730 5723 5717 5711 5706 5700 5696 5692 5688 5683 5680 5678 5675 5673 5671 5669 5669 5670 5670 5671 5673 5675 5678 5682 5686 5690 5694 5699 5705 5710 5716 5722 5728 5733 5740 5745
5762 5756 5751 5745 5739 5732 5726 5720 5713 5708 5702 5696 5691 5686 5681 5677 5674 5670 5667 5665 5663 5660 5658 5658 5658 5658 5659 5660 5662 5665 5668 5672 5677 5682 5686 5692 5698 5703 5710 5716 5722 5728 5734